Time,TemperatureF,DewpointF,PressureIn,WindDirection,WindDirectionDegrees,WindSpeedMPH,WindSpeedGustMPH,Humidity,HourlyPrecipIn,Conditions,Clouds,dailyrainin,SoftwareType,DateUTC
2013-06-30 00:02:00,62.0,62.0,-100.00,ENE,60,2.0,4.0,98,-99.99,,,-99.99,,2013-06-30 04:02:00,
2013-06-30 00:12:00,62.0,62.0,-100.00,ENE,75,2.0,4.0,98,-99.99,,,-99.99,,2013-06-30 04:12:00,
2013-06-30 00:22:00,62.0,61.0,-100.00,NE,50,2.0,3.0,98,-99.99,,,-99.99,,2013-06-30 04:22:00,
2013-06-30 00:33:00,62.0,61.0,-100.00,NE,35,1.0,3.0,98,-99.99,,,-99.99,,2013-06-30 04:33:00,
2013-06-30 00:43:00,62.0,62.0,-100.00,NNE,30,2.0,4.0,99,-99.99,,,-99.99,,2013-06-30 04:43:00,
2013-06-30 00:53:00,62.0,62.0,-100.00,ENE,60,1.0,3.0,99,-99.99,,,-99.99,,2013-06-30 04:53:00,
2013-06-30 01:02:00,62.0,62.0,-100.00,ENE,60,2.0,3.0,99,-99.99,,,-99.99,,2013-06-30 05:02:00,
2013-06-30 01:12:00,62.0,62.0,-100.00,ENE,65,2.0,3.0,99,-99.99,,,-99.99,,2013-06-30 05:12:00,
2013-06-30 01:22:00,62.0,61.0,-100.00,ENE,70,1.0,3.0,99,-99.99,,,-99.99,,2013-06-30 05:22:00,
2013-06-30 01:34:00,61.0,61.0,-100.00,East,95,2.0,2.0,99,-99.99,,,-99.99,,2013-06-30 05:34:00,
2013-06-30 01:43:00,61.0,61.0,-100.00,East,95,2.0,3.0,99,-99.99,,,-99.99,,2013-06-30 05:43:00,
2013-06-30 01:53:00,61.0,61.0,-100.00,North,0,1.0,2.0,99,-99.99,,,-99.99,,2013-06-30 05:53:00,
2013-06-30 02:02:00,61.0,61.0,-100.00,North,355,1.0,2.0,99,-99.99,,,-99.99,,2013-06-30 06:02:00,
2013-06-30 02:12:00,61.0,61.0,-100.00,North,350,1.0,2.0,99,-99.99,,,-99.99,,2013-06-30 06:12:00,
2013-06-30 02:23:00,61.0,61.0,-100.00,NNE,15,2.0,3.0,99,-99.99,,,-99.99,,2013-06-30 06:23:00,
2013-06-30 02:34:00,61.0,61.0,-100.00,NNE,30,2.0,3.0,99,-99.99,,,-99.99,,2013-06-30 06:34:00,
2013-06-30 02:43:00,61.0,61.0,-100.00,NE,40,2.0,5.0,99,-99.99,,,-99.99,,2013-06-30 06:43:00,
2013-06-30 02:53:00,61.0,61.0,-100.00,NNE,20,4.0,7.0,99,-99.99,,,-99.99,,2013-06-30 06:53:00,
2013-06-30 03:02:00,61.0,61.0,-100.00,NNE,15,3.0,6.0,99,-99.99,,,-99.99,,2013-06-30 07:02:00,
2013-06-30 03:12:00,61.0,60.0,-100.00,NNE,25,4.0,6.0,99,-99.99,,,-99.99,,2013-06-30 07:12:00,
2013-06-30 03:22:00,60.0,60.0,-100.00,NNE,30,2.0,6.0,99,-99.99,,,-99.99,,2013-06-30 07:22:00,
2013-06-30 03:33:00,60.0,60.0,-100.00,NE,40,2.0,4.0,99,-99.99,,,-99.99,,2013-06-30 07:33:00,
2013-06-30 03:44:00,60.0,60.0,-100.00,NNE,30,1.0,3.0,99,-99.99,,,-99.99,,2013-06-30 07:44:00,
2013-06-30 03:53:00,60.0,60.0,-100.00,NNE,25,2.0,4.0,99,-99.99,,,-99.99,,2013-06-30 07:53:00,
2013-06-30 04:02:00,60.0,60.0,-100.00,NE,45,1.0,2.0,99,-99.99,,,-99.99,,2013-06-30 08:02:00,
2013-06-30 04:12:00,60.0,59.0,-100.00,East,100,1.0,2.0,99,-99.99,,,-99.99,,2013-06-30 08:12:00,
2013-06-30 04:22:00,59.0,59.0,-100.00,ENE,65,2.0,3.0,99,-99.99,,,-99.99,,2013-06-30 08:22:00,
2013-06-30 04:33:00,59.0,59.0,-100.00,NNE,30,1.0,2.0,99,-99.99,,,-99.99,,2013-06-30 08:33:00,
2013-06-30 04:42:00,60.0,59.0,-100.00,NNE,15,1.0,3.0,99,-99.99,,,-99.99,,2013-06-30 08:42:00,
2013-06-30 04:53:00,60.0,59.0,-100.00,NNE,25,2.0,4.0,99,-99.99,,,-99.99,,2013-06-30 08:53:00,
2013-06-30 05:01:00,60.0,60.0,-100.00,NE,45,3.0,4.0,99,-99.99,,,-99.99,,2013-06-30 09:01:00,
2013-06-30 05:12:00,60.0,60.0,-100.00,NE,45,2.0,4.0,99,-99.99,,,-99.99,,2013-06-30 09:12:00,
2013-06-30 05:34:00,60.0,60.0,-100.00,NNE,15,1.0,3.0,99,-99.99,,,-99.99,,2013-06-30 09:34:00,
2013-06-30 05:43:00,60.0,60.0,-100.00,NE,35,1.0,2.0,99,-99.99,,,-99.99,,2013-06-30 09:43:00,
2013-06-30 05:53:00,60.0,60.0,-100.00,NNE,25,2.0,3.0,99,-99.99,,,-99.99,,2013-06-30 09:53:00,
2013-06-30 06:02:00,60.0,60.0,-100.00,NNE,25,2.0,3.0,99,-99.99,,,-99.99,,2013-06-30 10:02:00,
2013-06-30 06:11:00,60.0,60.0,-100.00,NNE,20,1.0,3.0,99,-99.99,,,-99.99,,2013-06-30 10:11:00,
2013-06-30 06:22:00,60.0,60.0,-100.00,NNE,20,1.0,2.0,99,-99.99,,,-99.99,,2013-06-30 10:22:00,
2013-06-30 06:33:00,60.0,60.0,-100.00,NNE,30,3.0,4.0,99,-99.99,,,-99.99,,2013-06-30 10:33:00,
2013-06-30 06:42:00,60.0,60.0,-100.00,NNE,20,2.0,6.0,99,-99.99,,,-99.99,,2013-06-30 10:42:00,
2013-06-30 06:53:00,60.0,60.0,-100.00,North,10,1.0,4.0,99,-99.99,,,-99.99,,2013-06-30 10:53:00,
2013-06-30 07:02:00,60.0,60.0,-100.00,NNE,25,1.0,4.0,99,-99.99,,,-99.99,,2013-06-30 11:02:00,
2013-06-30 07:11:00,60.0,60.0,-100.00,NNE,20,1.0,3.0,99,-99.99,,,-99.99,,2013-06-30 11:11:00,
2013-06-30 07:22:00,60.0,60.0,-100.00,NNE,20,2.0,2.0,99,-99.99,,,-99.99,,2013-06-30 11:22:00,
2013-06-30 07:33:00,60.0,60.0,-100.00,NNE,20,2.0,3.0,99,-99.99,,,-99.99,,2013-06-30 11:33:00,
2013-06-30 07:43:00,61.0,60.0,-100.00,NNE,20,1.0,4.0,99,-99.99,,,-99.99,,2013-06-30 11:43:00,
2013-06-30 07:53:00,61.0,61.0,-100.00,North,350,0.0,2.0,99,-99.99,,,-99.99,,2013-06-30 11:53:00,
2013-06-30 08:02:00,61.0,61.0,-100.00,NNE,25,0.0,1.0,99,-99.99,,,-99.99,,2013-06-30 12:02:00,
2013-06-30 08:11:00,62.0,61.0,-100.00,NE,55,0.0,1.0,99,-99.99,,,-99.99,,2013-06-30 12:11:00,
2013-06-30 08:24:00,62.0,62.0,-100.00,ENE,70,4.0,5.0,99,-99.99,,,-99.99,,2013-06-30 12:24:00,
2013-06-30 08:33:00,61.0,61.0,-100.00,NNE,25,4.0,6.0,99,-99.99,,,-99.99,,2013-06-30 12:33:00,
2013-06-30 08:43:00,61.0,61.0,-100.00,NNE,30,4.0,7.0,99,-99.99,,,-99.99,,2013-06-30 12:43:00,
2013-06-30 08:52:00,61.0,61.0,-100.00,NE,45,4.0,7.0,99,-99.99,,,-99.99,,2013-06-30 12:52:00,
2013-06-30 09:02:00,61.0,61.0,-100.00,NE,55,5.0,7.0,99,-99.99,,,-99.99,,2013-06-30 13:02:00,
2013-06-30 09:12:00,61.0,61.0,-100.00,ENE,60,4.0,7.0,99,-99.99,,,-99.99,,2013-06-30 13:12:00,
2013-06-30 09:22:00,61.0,60.0,-100.00,East,90,11.0,17.0,99,-99.99,,,-99.99,,2013-06-30 13:22:00,
2013-06-30 09:34:00,60.0,60.0,-100.00,ENE,70,11.0,17.0,99,-99.99,,,-99.99,,2013-06-30 13:34:00,
2013-06-30 09:43:00,60.0,60.0,-100.00,East,90,6.0,14.0,99,-99.99,,,-99.99,,2013-06-30 13:43:00,
2013-06-30 09:53:00,60.0,60.0,-100.00,ENE,65,4.0,9.0,99,-99.99,,,-99.99,,2013-06-30 13:53:00,
2013-06-30 10:02:00,61.0,60.0,-100.00,ENE,65,4.0,7.0,99,-99.99,,,-99.99,,2013-06-30 14:02:00,
2013-06-30 10:11:00,61.0,60.0,-100.00,ENE,65,4.0,6.0,99,-99.99,,,-99.99,,2013-06-30 14:11:00,
2013-06-30 10:22:00,61.0,60.0,-100.00,NE,40,4.0,6.0,99,-99.99,,,-99.99,,2013-06-30 14:22:00,
2013-06-30 10:33:00,61.0,61.0,-100.00,NNE,30,5.0,7.0,99,-99.99,,,-99.99,,2013-06-30 14:33:00,
2013-06-30 10:44:00,61.0,61.0,-100.00,NE,45,5.0,7.0,99,-99.99,,,-99.99,,2013-06-30 14:44:00,
2013-06-30 10:52:00,62.0,61.0,-100.00,NE,50,5.0,7.0,99,-99.99,,,-99.99,,2013-06-30 14:52:00,
2013-06-30 11:02:00,62.0,62.0,-100.00,NE,45,4.0,7.0,99,-99.99,,,-99.99,,2013-06-30 15:02:00,
2013-06-30 11:12:00,62.0,61.0,-100.00,NE,45,5.0,9.0,99,-99.99,,,-99.99,,2013-06-30 15:12:00,
2013-06-30 11:23:00,63.0,63.0,-100.00,NE,55,4.0,7.0,99,-99.99,,,-99.99,,2013-06-30 15:23:00,
2013-06-30 11:34:00,65.0,65.0,-100.00,East,100,4.0,7.0,99,-99.99,,,-99.99,,2013-06-30 15:34:00,
2013-06-30 11:44:00,66.0,65.0,-100.00,NE,50,4.0,7.0,98,-99.99,,,-99.99,,2013-06-30 15:44:00,
2013-06-30 11:53:00,65.0,63.0,-100.00,NE,45,6.0,9.0,95,-99.99,,,-99.99,,2013-06-30 15:53:00,
2013-06-30 12:01:00,65.0,63.0,-100.00,NE,50,5.0,9.0,94,-99.99,,,-99.99,,2013-06-30 16:01:00,
2013-06-30 12:11:00,65.0,63.0,-100.00,ENE,60,6.0,9.0,92,-99.99,,,-99.99,,2013-06-30 16:11:00,
2013-06-30 12:21:00,64.0,62.0,-100.00,NE,45,5.0,9.0,92,-99.99,,,-99.99,,2013-06-30 16:21:00,
2013-06-30 12:34:00,67.0,64.0,-100.00,ENE,65,6.0,9.0,91,-99.99,,,-99.99,,2013-06-30 16:34:00,
2013-06-30 12:44:00,68.0,64.0,-100.00,NE,45,4.0,9.0,87,-99.99,,,-99.99,,2013-06-30 16:44:00,
2013-06-30 12:53:00,70.0,64.0,-100.00,East,100,1.0,9.0,82,-99.99,,,-99.99,,2013-06-30 16:53:00,
2013-06-30 13:02:00,71.0,63.0,-100.00,ESE,105,4.0,9.0,77,-99.99,,,-99.99,,2013-06-30 17:02:00,
2013-06-30 13:11:00,70.0,62.0,-100.00,NE,35,2.0,6.0,75,-99.99,,,-99.99,,2013-06-30 17:11:00,
2013-06-30 13:23:00,70.0,62.0,-100.00,ENE,60,5.0,7.0,77,-99.99,,,-99.99,,2013-06-30 17:23:00,
2013-06-30 13:34:00,71.0,63.0,-100.00,ENE,65,4.0,7.0,75,-99.99,,,-99.99,,2013-06-30 17:34:00,
2013-06-30 13:43:00,70.0,62.0,-100.00,NE,55,4.0,9.0,74,-99.99,,,-99.99,,2013-06-30 17:43:00,
2013-06-30 13:52:00,71.0,62.0,-100.00,NE,50,4.0,9.0,74,-99.99,,,-99.99,,2013-06-30 17:52:00,
2013-06-30 14:02:00,72.0,63.0,-100.00,ENE,70,6.0,9.0,73,-99.99,,,-99.99,,2013-06-30 18:02:00,
2013-06-30 14:12:00,73.0,63.0,-100.00,ENE,65,6.0,9.0,70,-99.99,,,-99.99,,2013-06-30 18:12:00,
2013-06-30 14:22:00,74.0,63.0,-100.00,NE,35,6.0,14.0,69,-99.99,,,-99.99,,2013-06-30 18:22:00,
2013-06-30 14:34:00,74.0,63.0,-100.00,NE,50,6.0,10.0,67,-99.99,,,-99.99,,2013-06-30 18:34:00,
2013-06-30 14:43:00,74.0,63.0,-100.00,ENE,60,4.0,9.0,67,-99.99,,,-99.99,,2013-06-30 18:43:00,
2013-06-30 14:53:00,75.0,62.0,-100.00,ENE,65,2.0,9.0,64,-99.99,,,-99.99,,2013-06-30 18:53:00,
2013-06-30 15:01:00,73.0,63.0,-100.00,NE,35,7.0,12.0,71,-99.99,,,-99.99,,2013-06-30 19:01:00,
2013-06-30 15:11:00,72.0,63.0,-100.00,NE,55,6.0,12.0,73,-99.99,,,-99.99,,2013-06-30 19:11:00,
2013-06-30 15:22:00,74.0,64.0,-100.00,ENE,60,9.0,17.0,73,-99.99,,,-99.99,,2013-06-30 19:22:00,
2013-06-30 15:33:00,68.0,61.0,-100.00,East,95,15.0,22.0,79,-99.99,,,-99.99,,2013-06-30 19:33:00,
2013-06-30 15:43:00,68.0,62.0,-100.00,East,100,14.0,20.0,80,-99.99,,,-99.99,,2013-06-30 19:43:00,
2013-06-30 15:53:00,69.0,62.0,-100.00,East,80,14.0,19.0,77,-99.99,,,-99.99,,2013-06-30 19:53:00,
2013-06-30 16:02:00,70.0,61.0,-100.00,East,85,13.0,21.0,74,-99.99,,,-99.99,,2013-06-30 20:02:00,
2013-06-30 16:11:00,71.0,61.0,-100.00,ENE,70,9.0,17.0,73,-99.99,,,-99.99,,2013-06-30 20:11:00,
2013-06-30 16:22:00,70.0,61.0,-100.00,ENE,65,8.0,15.0,74,-99.99,,,-99.99,,2013-06-30 20:22:00,
2013-06-30 16:34:00,70.0,62.0,-100.00,ENE,65,9.0,14.0,76,-99.99,,,-99.99,,2013-06-30 20:34:00,
2013-06-30 16:42:00,68.0,62.0,-100.00,East,85,8.0,14.0,80,-99.99,,,-99.99,,2013-06-30 20:42:00,
2013-06-30 16:52:00,68.0,62.0,-100.00,ENE,60,9.0,12.0,82,-99.99,,,-99.99,,2013-06-30 20:52:00,
2013-06-30 17:01:00,67.0,61.0,-100.00,ENE,75,6.0,11.0,81,-99.99,,,-99.99,,2013-06-30 21:01:00,
2013-06-30 17:11:00,68.0,63.0,-100.00,ENE,75,6.0,10.0,85,-99.99,,,-99.99,,2013-06-30 21:11:00,
2013-06-30 17:22:00,67.0,63.0,-100.00,ENE,75,6.0,10.0,86,-99.99,,,-99.99,,2013-06-30 21:22:00,
2013-06-30 17:34:00,67.0,63.0,-100.00,ENE,75,6.0,10.0,87,-99.99,,,-99.99,,2013-06-30 21:34:00,
2013-06-30 17:43:00,67.0,64.0,-100.00,NE,50,5.0,7.0,91,-99.99,,,-99.99,,2013-06-30 21:43:00,
2013-06-30 17:53:00,67.0,64.0,-100.00,NE,45,6.0,9.0,92,-99.99,,,-99.99,,2013-06-30 21:53:00,
2013-06-30 18:01:00,67.0,65.0,-100.00,NE,40,6.0,11.0,93,-99.99,,,-99.99,,2013-06-30 22:01:00,
2013-06-30 18:11:00,67.0,65.0,-100.00,ENE,65,6.0,9.0,93,-99.99,,,-99.99,,2013-06-30 22:11:00,
2013-06-30 18:22:00,67.0,64.0,-100.00,NE,50,7.0,10.0,92,-99.99,,,-99.99,,2013-06-30 22:22:00,
2013-06-30 18:34:00,67.0,65.0,-100.00,NE,55,4.0,8.0,92,-99.99,,,-99.99,,2013-06-30 22:34:00,
2013-06-30 18:43:00,68.0,65.0,-100.00,NNE,25,6.0,9.0,90,-99.99,,,-99.99,,2013-06-30 22:43:00,
2013-06-30 18:53:00,69.0,65.0,-100.00,NNE,20,7.0,10.0,88,-99.99,,,-99.99,,2013-06-30 22:53:00,
2013-06-30 19:02:00,69.0,66.0,-100.00,NNW,345,4.0,9.0,88,-99.99,,,-99.99,,2013-06-30 23:02:00,
2013-06-30 19:11:00,70.0,66.0,-100.00,North,350,3.0,9.0,87,-99.99,,,-99.99,,2013-06-30 23:11:00,
2013-06-30 19:22:00,69.0,65.0,-100.00,NNE,25,4.0,11.0,86,-99.99,,,-99.99,,2013-06-30 23:22:00,
2013-06-30 19:33:00,68.0,64.0,-100.00,NNE,25,7.0,12.0,88,-99.99,,,-99.99,,2013-06-30 23:33:00,
2013-06-30 19:44:00,67.0,62.0,-100.00,NE,55,9.0,16.0,83,-99.99,,,-99.99,,2013-06-30 23:44:00,
2013-06-30 19:53:00,68.0,62.0,-100.00,ENE,60,11.0,17.0,83,-99.99,,,-99.99,,2013-06-30 23:53:00,
2013-06-30 20:01:00,67.0,62.0,-100.00,ENE,60,8.0,17.0,84,-99.99,,,-99.99,,2013-07-01 00:01:00,
2013-06-30 20:11:00,67.0,62.0,-100.00,NE,45,6.0,11.0,85,-99.99,,,-99.99,,2013-07-01 00:11:00,
2013-06-30 20:22:00,66.0,62.0,-100.00,NE,55,6.0,11.0,86,-99.99,,,-99.99,,2013-07-01 00:22:00,
2013-06-30 20:33:00,66.0,62.0,-100.00,NE,40,5.0,11.0,86,-99.99,,,-99.99,,2013-07-01 00:33:00,
2013-06-30 20:42:00,66.0,62.0,-100.00,NE,50,6.0,8.0,88,-99.99,,,-99.99,,2013-07-01 00:42:00,
2013-06-30 20:52:00,65.0,62.0,-100.00,NE,35,5.0,7.0,90,-99.99,,,-99.99,,2013-07-01 00:52:00,
2013-06-30 21:01:00,65.0,62.0,-100.00,ENE,60,6.0,8.0,91,-99.99,,,-99.99,,2013-07-01 01:01:00,
2013-06-30 21:11:00,65.0,62.0,-100.00,NE,50,4.0,8.0,92,-99.99,,,-99.99,,2013-07-01 01:11:00,
2013-06-30 21:22:00,64.0,62.0,-100.00,NE,45,5.0,9.0,93,-99.99,,,-99.99,,2013-07-01 01:22:00,
2013-06-30 21:33:00,64.0,62.0,-100.00,ENE,60,6.0,11.0,93,-99.99,,,-99.99,,2013-07-01 01:33:00,
2013-06-30 21:42:00,64.0,62.0,-100.00,ENE,60,7.0,11.0,93,-99.99,,,-99.99,,2013-07-01 01:42:00,
2013-06-30 21:52:00,64.0,62.0,-100.00,NE,45,7.0,11.0,94,-99.99,,,-99.99,,2013-07-01 01:52:00,
2013-06-30 22:02:00,64.0,62.0,-100.00,NE,50,7.0,12.0,94,-99.99,,,-99.99,,2013-07-01 02:02:00,
2013-06-30 22:12:00,64.0,62.0,-100.00,NE,50,6.0,11.0,95,-99.99,,,-99.99,,2013-07-01 02:12:00,
2013-06-30 22:22:00,64.0,63.0,-100.00,NE,45,6.0,11.0,96,-99.99,,,-99.99,,2013-07-01 02:22:00,
2013-06-30 22:33:00,63.0,62.0,-100.00,NE,50,5.0,8.0,96,-99.99,,,-99.99,,2013-07-01 02:33:00,
2013-06-30 22:44:00,63.0,62.0,-100.00,NE,40,4.0,7.0,97,-99.99,,,-99.99,,2013-07-01 02:44:00,
2013-06-30 22:53:00,63.0,62.0,-100.00,NNE,25,4.0,7.0,97,-99.99,,,-99.99,,2013-07-01 02:53:00,
2013-06-30 23:01:00,63.0,62.0,-100.00,NNE,30,4.0,7.0,97,-99.99,,,-99.99,,2013-07-01 03:01:00,
2013-06-30 23:11:00,63.0,62.0,-100.00,NE,45,4.0,8.0,97,-99.99,,,-99.99,,2013-07-01 03:11:00,
2013-06-30 23:23:00,63.0,62.0,-100.00,NE,45,4.0,8.0,97,-99.99,,,-99.99,,2013-07-01 03:23:00,
2013-06-30 23:33:00,63.0,62.0,-100.00,NE,40,4.0,8.0,98,-99.99,,,-99.99,,2013-07-01 03:33:00,
2013-06-30 23:43:00,63.0,62.0,-100.00,NE,45,5.0,9.0,98,-99.99,,,-99.99,,2013-07-01 03:43:00,
2013-06-30 23:52:00,63.0,62.0,-100.00,NE,45,6.0,10.0,98,-99.99,,,-99.99,,2013-07-01 03:52:00,